Weather History for Teterboro, NJ

Change the Weather History Date:

Sunday, February 17, 2013

  Actual Average Record
Temperature  
Mean Temperature 24 °F -  
Max Temperature 30 °F 40 °F 63 °F (2011)
Min Temperature 18 °F 25 °F 12 °F (2003)
Degree Days  
Heating Degree Days 41    
Moisture  
Dew Point 5 °F    
Average Humidity 40    
Maximum Humidity 51    
Minimum Humidity 32    
Precipitation  
Precipitation 0.00 in - - ()
Sea Level Pressure  
Sea Level Pressure 29.76 in    
Wind  
Wind Speed 17 mph (NW)    
Max Wind Speed 31 mph    
Max Gust Speed 45 mph    
Visibility 10 miles    
Events      
Averages and records for this station are not official NWS values.
T = Trace of Precipitation, MM = Missing Value Source: NWS Daily Summary

Daily Weather History Graph

Daily Weather History Graph

Search for Another Location

Airport:

Trip Planner

Search our weather history database for the weather conditions in past years. The results will help you decide how hot, cold, wet, or windy it might be!

Date:

Astronomy

Feb. 17, 2013 Rise Set
Actual Time 6:47 AM EST 5:33 PM EST
Civil Twilight 6:19 AM EST 6:01 PM EST
Nautical Twilight 5:47 AM EST 6:33 PM EST
Astronomical Twilight 5:15 AM EST 7:05 PM EST
Moon 10:35 AM EST (2/17) 12:30 AM EST (2/17)
Length of Visible Light 11h 42m
Length of Day
10h 46m
Waxing Crescent, 49% of the Moon is Illuminated
Feb 17
Waxing Crescent
Feb 17
First Quarter
Feb 25
Full
Mar 4
Last Quarter
Mar 11
New

Hourly Weather History & Observations

Time (EST) Temp. Windchill Dew Point Humidity Pressure Visibility Wind Dir Wind Speed Gust Speed Precip Events Conditions
12:51 AM 30.0 °F 19.1 °F 12.0 °F 47% 29.73 in 10.0 mi NNW 15.0 mph 20.7 mph N/A   Overcast
1:51 AM 30.0 °F 19.5 °F 10.9 °F 45% 29.72 in 10.0 mi North 13.8 mph 23.0 mph N/A   Overcast
2:51 AM 28.9 °F 18.6 °F 10.9 °F 47% 29.70 in 10.0 mi North 12.7 mph 23.0 mph N/A   Overcast
3:51 AM 28.0 °F 17.5 °F 12.0 °F 51% 29.70 in 10.0 mi NNW 12.7 mph 19.6 mph N/A   Overcast
4:51 AM 28.0 °F 18.6 °F 12.0 °F 51% 29.68 in 10.0 mi North 10.4 mph - N/A   Overcast
5:51 AM 28.0 °F 19.3 °F 10.9 °F 49% 29.68 in 10.0 mi North 9.2 mph - N/A   Partly Cloudy
6:51 AM 28.0 °F 17.5 °F 6.1 °F 39% 29.67 in 10.0 mi NW 12.7 mph 20.7 mph N/A   Scattered Clouds
7:51 AM 27.0 °F 13.5 °F 3.9 °F 37% 29.68 in 10.0 mi NW 19.6 mph 27.6 mph N/A   Clear
8:51 AM 27.0 °F 12.8 °F 3.0 °F 36% 29.67 in 10.0 mi NW 21.9 mph 29.9 mph N/A   Clear
9:51 AM 28.0 °F 13.0 °F 3.9 °F 36% 29.68 in 10.0 mi NW 26.5 mph 36.8 mph N/A   Clear
10:51 AM 28.9 °F 13.2 °F 3.0 °F 33% 29.69 in 10.0 mi NNW 31.1 mph 44.9 mph N/A   Clear
11:51 AM 30.0 °F 16.9 °F 3.9 °F 33% 29.70 in 10.0 mi NW 21.9 mph 36.8 mph N/A   Clear
12:51 PM 30.0 °F 16.6 °F 3.9 °F 33% 29.71 in 10.0 mi NW 23.0 mph 35.7 mph N/A   Clear
1:51 PM 30.0 °F 16.9 °F 5.0 °F 35% 29.73 in 10.0 mi NW 21.9 mph 33.4 mph N/A   Clear
2:51 PM 30.9 °F 18.4 °F 3.9 °F 32% 29.73 in 10.0 mi NW 20.7 mph 32.2 mph N/A   Partly Cloudy
3:51 PM 28.0 °F 13.9 °F 1.9 °F 33% 29.76 in 10.0 mi NW 23.0 mph 35.7 mph N/A   Scattered Clouds
4:51 PM 26.1 °F 12.0 °F 1.9 °F 35% 29.78 in 10.0 mi NW 20.7 mph 36.8 mph N/A   Partly Cloudy
5:51 PM 25.0 °F 9.9 °F 1.9 °F 37% 29.82 in 10.0 mi NW 23.0 mph 34.5 mph N/A   Clear
6:51 PM 23.0 °F 10.1 °F 3.0 °F 42% 29.88 in 10.0 mi NNW 15.0 mph 29.9 mph N/A   Partly Cloudy
7:51 PM 21.9 °F 6.5 °F 1.9 °F 42% 29.91 in 10.0 mi WNW 20.7 mph 36.8 mph N/A   Clear
8:51 PM 19.9 °F 6.2 °F 1.9 °F 46% 29.95 in 10.0 mi NW 15.0 mph 31.1 mph N/A   Partly Cloudy
9:51 PM 18.0 °F 2.2 °F -0.9 °F 44% 29.98 in 10.0 mi NW 18.4 mph 36.8 mph N/A   Clear
10:51 PM 18.0 °F 2.2 °F -0.0 °F 45% 29.99 in 10.0 mi NW 18.4 mph 25.3 mph N/A   Clear